Home > Weather > Crawley > Past weeks

Flag for United Kingdom Past Weather in Crawley, England, United Kingdom — Yesterday and Last 2 Weeks

Now
75 °F

Passing clouds.


Feels Like: 77 °F
Forecast: 57 / 74 °F
Wind: 5 mph from West

Location: London / Gatwick Airport

Current Time: Jul 23, 2016 at 12:12:21 PM

Latest Report: Jul 23, 2016 at 11:20 AM


Visibility: N/A

Pressure: 30.12 "Hg

Humidity: 61%

Dew Point: 61 °F

Location of CrawleyLocation

Past Weather in Crawley — Graph

°F

Crawley Temperature Yesterday

Maximum temperature yesterday: 73 °F (at 10:50 AM)
Minimum temperature yesterday: 59 °F (at 11:50 PM)
Average temperature yesterday: 67 °F

High & Low Weather Summary for the Past Weeks

 TemperatureHumidityPressure
High88 °F (Jul 19, 3:50 PM)100% (Jul 10, 10:50 AM)30.33 "Hg (Jul 10, 10:50 AM)
Low48 °F (Jul 15, 4:50 AM)37% (Jul 18, 3:50 PM)29.71 "Hg (Jul 11, 4:20 AM)
Average65 °F78%30.05 "Hg
* Reported Jul 8 11:20 AM — Jul 23 11:20 AM, Crawley, Weather by CustomWeather, © 2016

Note: Actual official high and low records may vary slightly from our data, if they occured in-between our weather recording intervals... More about our weather records

Advertising

Crawley Weather History for the Previous 24 Hours

Scroll right to see more
 ConditionsComfort  
Time TempWeatherWind HumidityBarometerVisibility
11:20 AM
Sat, Jul 23
75 °FPassing clouds.5 mph61%30.12 "HgN/A
10:20 AM73 °FPassing clouds.5 mph69%30.12 "HgN/A
9:50 AM72 °FSunny.No wind69%30.12 "Hg10 mi
9:20 AM70 °FSunny.No wind73%30.12 "Hg10 mi
8:50 AM70 °FSunny.2 mph73%30.12 "Hg10 mi
8:20 AM66 °FSunny.2 mph83%30.12 "Hg10 mi
7:50 AM64 °FSunny.2 mph83%30.12 "Hg10 mi
7:20 AM61 °FSunny.2 mph94%30.12 "Hg10 mi
6:50 AM59 °FClear.No wind94%30.12 "Hg6 mi
6:20 AM55 °FFog.No wind100%30.12 "Hg6 mi
5:50 AM54 °FFog.No wind100%30.12 "Hg6 mi
5:20 AM54 °FFog.No wind100%30.09 "Hg5 mi
4:50 AM54 °FFog.No wind100%30.12 "Hg5 mi
4:20 AM55 °FClear.2 mph94%30.12 "Hg5 mi
3:50 AM55 °FClear.No wind100%30.12 "Hg5 mi
3:20 AM55 °FClear.3 mph100%30.12 "Hg10 mi
2:50 AM55 °FClear.2 mph100%30.12 "Hg10 mi
2:20 AM57 °FClear.2 mph94%30.12 "Hg10 mi
1:50 AM57 °FClear.2 mph100%30.12 "Hg10 mi
1:20 AM59 °FClear.2 mph94%30.12 "Hg10 mi
12:50 AM59 °FClear.No wind94%30.12 "Hg10 mi
12:20 AM59 °FClear.2 mph94%30.12 "Hg10 mi
11:50 PM
Fri, Jul 22
59 °FClear.2 mph94%30.12 "Hg10 mi
11:20 PM61 °FClear.No wind94%30.12 "Hg10 mi
10:50 PM63 °FClear.3 mph94%30.12 "Hg10 mi
10:20 PM63 °FClear.3 mph94%30.12 "Hg10 mi
9:50 PM63 °FSunny.3 mph94%30.12 "Hg10 mi
9:20 PM64 °FSunny.2 mph83%30.09 "Hg10 mi
8:50 PM66 °FSunny.No wind83%30.09 "Hg10 mi
8:20 PM72 °FSunny.3 mph69%30.09 "Hg10 mi
7:50 PM73 °FSunny.5 mph65%30.09 "Hg10 mi
7:20 PM73 °FSunny.3 mph69%30.09 "Hg10 mi
6:50 PM73 °FSunny.3 mph69%30.07 "Hg10 mi
6:20 PM72 °FSunny.3 mph73%30.07 "Hg10 mi
5:50 PM72 °FSunny.3 mph69%30.09 "Hg10 mi
4:50 PM72 °FPassing clouds.3 mph69%30.09 "HgN/A
4:20 PM72 °FPassing clouds.5 mph69%30.09 "HgN/A
3:50 PM72 °FPassing clouds.5 mph69%30.09 "HgN/A
3:20 PM70 °FPassing clouds.5 mph73%30.09 "HgN/A
2:50 PM68 °FScattered clouds.5 mph78%30.09 "HgN/A
2:20 PM70 °FLight rain. Broken clouds.5 mph73%30.09 "HgN/A
1:50 PM70 °FLight rain. More clouds than sun.5 mph73%30.09 "HgN/A
1:20 PM70 °FLight rain. Broken clouds.7 mph73%30.07 "HgN/A
12:50 PM70 °FScattered clouds.5 mph69%30.07 "HgN/A
12:20 PM73 °FPartly sunny.3 mph61%30.07 "HgN/A
Weather by CustomWeather, © 2016

See weather overviewHow to use our weather pages